EW0533 Weather Reports


Display with metric or nautical units.
time (UTC)temp
F
wind
direction
speed
MPH
gust
MPH
rain 1hr
in
rain 24hr
in
rain mn
in
humidity
%
barometer
mb
20260508053053 58 155 0.0 4.0 0.00 0.00 0.00 16 1010.5
20260508051607 58 155 5.0 9.0 0.00 0.00 0.00 15 1010.5
20260508050046 57 155 1.0 4.0 0.00 0.00 0.00 18 1010.4
20260508044543 56 155 0.0 3.0 0.00 0.00 0.00 17 1010.5
20260508043043 56 155 0.0 0.0 0.00 0.00 0.00 15 1010.6
20260508041545 57 155 0.0 0.0 0.00 0.00 0.00 14 1010.4
20260508040042 57 155 0.0 0.0 0.00 0.00 0.00 14 1010.3
20260508034542 58 155 0.0 0.0 0.00 0.00 0.00 12 1010.2
20260508033048 60 155 0.0 0.0 0.00 0.00 0.00 11 1009.9
20260508031541 59 155 0.0 0.0 0.00 0.00 0.00 11 1009.7
20260508030045 61 155 0.0 0.0 0.00 0.00 0.00 11 1009.4
20260508024540 63 155 0.0 0.0 0.00 0.00 0.00 10 1009.2
20260508023039 65 155 0.0 0.0 0.00 0.00 0.00 9 1009.0
20260508021548 67 155 0.0 0.0 0.00 0.00 0.00 8 1008.9
20260508020038 68 155 0.0 0.0 0.00 0.00 0.00 7 1008.7
20260508014538 70 156 0.0 1.0 0.00 0.00 0.00 7 1008.6
20260508013038 72 155 0.0 4.0 0.00 0.00 0.00 7 1008.4
20260508011546 72 155 2.0 4.0 0.00 0.00 0.00 9 1008.3
20260508010050 73 155 4.0 8.0 0.00 0.00 0.00 9 1008.1
20260508004534 73 155 2.0 7.0 0.00 0.00 0.00 8 1008.2
20260508003032 74 155 3.0 7.0 0.00 0.00 0.00 8 1008.2
20260508001530 75 156 2.0 8.0 0.00 0.00 0.00 8 1008.1
20260508000030 75 155 4.0 11.0 0.00 0.00 0.00 8 1008.3
20260507234526 76 155 4.0 9.0 0.00 0.00 0.00 8 1008.2
20260507233027 76 155 2.0 9.0 0.00 0.00 0.00 8 1008.6
20260507231522 76 155 4.0 9.0 0.00 0.00 0.00 8 1008.6
20260507230027 76 155 3.0 8.0 0.00 0.00 0.00 8 1008.9
20260507224517 76 155 3.0 10.0 0.00 0.00 0.00 9 1009.1
20260507223019 75 155 4.0 11.0 0.00 0.00 0.00 10 1009.3
20260507221511 75 155 4.0 9.0 0.00 0.00 0.00 10 1009.6
20260507220009 74 155 3.0 11.0 0.00 0.00 0.00 11 1009.8
20260507214507 75 155 4.0 12.0 0.00 0.00 0.00 12 1010.2
20260507213005 75 155 3.0 10.0 0.00 0.00 0.00 12 1010.4
20260507211503 74 155 5.0 13.0 0.00 0.00 0.00 13 1010.8
20260507210105 74 155 6.0 11.0 0.00 0.00 0.00 13 1010.9
20260507204556 74 155 3.0 9.0 0.00 0.00 0.00 14 1011.4
20260507203054 73 155 5.0 11.0 0.00 0.00 0.00 15 1011.7
20260507201604 72 155 4.0 9.0 0.00 0.00 0.00 14 1012.1
20260507200100 71 155 2.0 11.0 0.00 0.00 0.00 16 1012.4
20260507194544 70 155 1.0 7.0 0.00 0.00 0.00 18 1012.8
20260507193047 70 155 4.0 9.0 0.00 0.00 0.00 18 1013.2
20260507191539 70 155 1.0 6.0 0.00 0.00 0.00 18 1013.4
20260507190037 68 156 2.0 7.0 0.00 0.00 0.00 20 1013.8
20260507184531 67 155 2.0 8.0 0.00 0.00 0.00 21 1014.1
20260507183036 66 155 5.0 8.0 0.00 0.00 0.00 22 1014.5
20260507181532 66 155 2.0 6.0 0.00 0.00 0.00 20 1014.7
20260507180021 65 155 0.0 5.0 0.00 0.00 0.00 24 1015.0
20260507174521 65 155 0.0 3.0 0.00 0.00 0.00 25 1015.2
20260507173018 64 156 0.0 3.0 0.00 0.00 0.00 27 1015.6
20260507171514 62 156 0.0 5.0 0.00 0.00 0.00 30 1016.0
20260507170012 62 156 0.0 4.0 0.00 0.00 0.00 31 1016.1
20260507164512 61 155 0.0 5.0 0.00 0.00 0.00 34 1016.2
20260507163007 60 155 0.0 4.0 0.00 0.00 0.00 36 1016.4
20260507161504 58 155 0.0 5.0 0.00 0.00 0.00 40 1016.8
20260507160002 57 155 0.0 4.0 0.00 0.00 0.00 42 1017.0
20260507154558 56 155 0.0 6.0 0.00 0.00 0.00 44 1017.2
20260507153111 55 155 0.0 5.0 0.00 0.00 0.00 46 1017.3
20260507151558 53 155 0.0 5.0 0.00 0.00 0.00 49 1017.4
20260507150053 52 155 1.0 5.0 0.00 0.00 0.00 53 1017.5
20260507144544 50 155 0.0 5.0 0.00 0.00 0.00 57 1017.5
20260507143050 48 155 2.0 5.0 0.00 0.00 0.00 61 1017.7
20260507141543 47 155 2.0 7.0 0.00 0.00 0.00 63 1017.7
20260507140046 46 156 2.0 7.0 0.00 0.00 0.00 65 1017.9
20260507134541 45 155 3.0 6.0 0.00 0.00 0.00 65 1017.8
20260507133041 44 155 2.0 7.0 0.00 0.00 0.00 67 1017.7
20260507131540 43 155 1.0 5.0 0.00 0.00 0.00 70 1017.6
20260507130055 42 155 1.0 8.0 0.00 0.00 0.00 71 1017.6
20260507124537 41 156 1.0 9.0 0.00 0.00 0.00 73 1017.6
20260507123040 41 155 1.0 7.0 0.00 0.00 0.00 72 1017.5
20260507121538 40 155 2.0 6.0 0.00 0.00 0.00 73 1017.4
20260507120036 40 155 0.0 1.0 0.00 0.00 0.00 71 1017.4
20260507114528 40 155 0.0 3.0 0.00 0.00 0.00 70 1017.2
20260507113025 40 155 0.0 2.0 0.00 0.00 0.00 68 1017.3
20260507111523 41 155 0.0 3.0 0.00 0.00 0.00 67 1017.3
20260507110025 41 155 0.0 2.0 0.00 0.00 0.00 67 1017.3
20260507104519 41 155 0.0 2.0 0.00 0.00 0.00 66 1017.4
20260507103016 41 155 0.0 4.0 0.00 0.00 0.00 66 1017.2
20260507101515 41 156 0.0 2.0 0.00 0.00 0.00 65 1017.1
20260507100012 41 155 0.0 4.0 0.00 0.00 0.00 64 1016.9
20260507094510 42 155 0.0 1.0 0.00 0.00 0.00 62 1017.0
20260507093008 42 155 0.0 0.0 0.00 0.00 0.00 56 1017.0
20260507091507 42 155 0.0 2.0 0.00 0.00 0.00 49 1017.0
20260507090004 42 155 0.0 2.0 0.00 0.00 0.00 44 1017.1
20260507084602 43 155 0.0 0.0 0.00 0.00 0.00 38 1017.0
20260507083112 44 155 0.0 2.0 0.00 0.00 0.00 36 1016.8
20260507081601 45 155 0.0 2.0 0.00 0.00 0.00 35 1016.5
20260507080055 45 156 0.0 5.0 0.00 0.00 0.00 35 1016.4
20260507074558 44 156 0.0 1.0 0.00 0.00 0.00 38 1016.4
20260507073058 44 155 0.0 0.0 0.00 0.00 0.00 38 1016.0
20260507071549 44 155 0.0 2.0 0.00 0.00 0.00 37 1015.8
20260507070047 44 155 0.0 0.0 0.00 0.00 0.00 36 1015.7
20260507064544 46 155 0.0 1.0 0.00 0.00 0.00 35 1015.4
20260507063048 46 155 0.0 2.0 0.00 0.00 0.00 36 1015.4
20260507061543 46 155 0.0 0.0 0.00 0.00 0.00 36 1015.4
20260507060037 49 155 0.0 1.0 0.00 0.00 0.00 32 1015.2
20260507054539 52 155 0.0 1.0 0.00 0.00 0.00 27 1015.1